Regional Weather Roundup
Issued by NWS Sterling, VA

Home | Current Version | Previous Version | Text Only | Print | Product List | Glossary Off
Versions: 1 2 3 4 5 6 7 8 9 10 11 12 13 14 15 16 17 18 19 20 21 22 23 24 25 26 27 28 29 30 31 32 33 34 35 36 37 38 39 40 41 42 43 44 45 46 47 48 49 50

000
ASUS41 KLWX 301610
RWRLWX

REGIONAL WEATHER ROUNDUP
NATIONAL WEATHER SERVICE BALTIMORE MD/WASHINGTON DC
1200 PM EDT WED JUL 30 2014

Note: "FAIR" indicates few or no clouds below 12,000 feet
with no significant weather and/or obstructions to visibility.
 TC=TEMPERATURE CELSIUS

 * =Non NWS site. Station does not report precipitation (e.g. rain,
    snow, etc.), thunder, or fog.

DCZ001-MDZ009-015-VAZ040>042-051-053>054-301700-
WASHINGTON METRO
  /KDAA//-FT BELVOIR

CITY           SKY/WX    TMP DP  RH WIND       PRES   REMARKS
WASHINGTON NAT MOSUNNY   78  50  37 VRB3      30.10R
DULLES         PTSUNNY   72  47  40 VRB6      30.10R
ANDREWS AFB    PTSUNNY   75  51  42 VRB1      30.09S
QUANTICO       MOSUNNY   74  52  46 S7        30.10F
COLLEGE PARK*  SUNNY     77  50  38 NW6       30.09S
LEESBURG*      MOSUNNY   73  54  49 CALM      30.10S
GAITHERSBURG*  SUNNY     72  52  49 W5        30.13S

$$

MDZ006>007-011-014-301700-
BALTIMORE METRO

CITY           SKY/WX    TMP DP  RH WIND       PRES   REMARKS
BWI AIRPORT    MOSUNNY   76  50  40 W7        30.07F
MD SCIENCE CTR   N/A     76  50  40 MISG      30.07F
MARTIN STATE   MOSUNNY   75  55  50 SE6       30.09S
ANNAPOLIS      SUNNY     74  54  49 N6        30.08S
FORT MEADE*    SUNNY     73  52  46 W7        30.11S

$$

MDZ012-015-019>023-301700-
MARYLAND EASTERN SHORE

CITY           SKY/WX    TMP DP  RH WIND       PRES   REMARKS
OCEAN CITY     SUNNY     77  54  44 VRB5      30.07S
SALISBURY      SUNNY     78  50  37 NW6       30.08R
BAY BRIDGE AP*   N/A     72  52  49 W3        30.09S
CAMBRIDGE*     SUNNY     77  52  41 NW6       30.08S
EASTON*        MOSUNNY   75  55  50 W6        30.11F

$$

MDZ017>025-301700-
SOUTHERN MARYLAND

CITY           SKY/WX    TMP DP  RH WIND       PRES   REMARKS
PATUXENT RIVER MOSUNNY   76  50  40 N6        30.09S
ST INIGOES     SUNNY     75  54  47 VRB6      30.09S
LEONARDTOWN*   SUNNY     72  50  46 W3        30.11S

$$

MDZ003>005-301700-
NORTH CENTRAL MARYLAND

CITY           SKY/WX    TMP DP  RH WIND       PRES   REMARKS
FREDERICK*     SUNNY     75  54  46 CALM      30.11S
HAGERSTOWN APT SUNNY     69  51  52 VRB3      30.09S
WESTMINSTER*   MOSUNNY   72  54  53 S3        30.09S

$$

MDZ501>502-301700-
WESTERN MARYLAND

CITY           SKY/WX    TMP DP  RH WIND       PRES   REMARKS
OAKLAND*       MOSUNNY   61  52  72 W7        30.14S
CUMBERLAND*    SUNNY     77  55  47 E5        30.12F

$$

VAZ025>031-301700-
SHENANDOAH VALLEY

CITY           SKY/WX    TMP DP  RH WIND       PRES   REMARKS
WINCHESTER*    MOSUNNY   70  52  52 S3        30.10S
STAUNTON*      SUNNY     72  51  47 W5        30.13F

$$

WVZ021-048>050-054>055-301700-
EASTERN WEST VIRGINIA PANHANDLE

CITY           SKY/WX    TMP DP  RH WIND       PRES   REMARKS
MARTINSBURG    SUNNY     73  48  41 NW5       30.10S
PETERSBURG*    MOSUNNY   71  48  44 SE3       30.11F

$$

VAZ036>039-050-301700-
CENTRAL FOOTHILLS

CITY           SKY/WX    TMP DP  RH WIND       PRES   REMARKS
CHARLOTTESVILL SUNNY     73  54  51 VRB6      30.10F
ORANGE*        MOSUNNY   73  50  43 SE5       30.11F

$$

VAZ055>057-301700-
NORTH AND CENTRAL PIEDMONT

CITY           SKY/WX    TMP DP  RH WIND       PRES   REMARKS
FREDERICKSBRG* SUNNY     75  51  42 N3        30.09F
STAFFORD*      SUNNY     74  49  42 W3        30.14S

$$

NCZ024-NYZ072-PAZ021-071-VAZ022-071-301700-
OTHER REGIONAL OBSERVATIONS

CITY           SKY/WX    TMP DP  RH WIND       PRES   REMARKS
NEW YORK CITY  SUNNY     76  48  37 W5        30.05F
PHILADELPHIA   MOSUNNY   75  50  41 SW8       30.05F
PITTSBURGH     PTSUNNY   69  57  65 W9        30.06S
ROANOKE        MOSUNNY   72  51  47 CALM      30.14F
RICHMOND       MOSUNNY   79  50  36 VRB3      30.10S
RALEIGH        PTSUNNY   75  63  66 VRB5      30.10R

$$

ANZ530>537-301700-
MARINE OBSERVATIONS

STATION/POSITION TIME  TEMP    WIND        PRES
                       AIR SEA DIR/SP/G
                 (UTC) (F)     (DEG/KT/KT) (MB)
THOMAS PT LIGHT  1600   70 77  160/  2/  3 1019.3S
BALT KEY BRIDGE  1600   72     150/  3/  4 1018.3F
COVE POINT       1600   70      30/  3/  5 1018.8F
LEWISETTA        1600   73 76   30/  4/  6 1018.8F
SOLOMONS ISLAND  1600      79                N/A
PINEY POINT      1600          330/  7/  8   N/A

$$




USA.gov is the U.S. government's official web portal to all federal, state and local government web resources and services.